This is the latest recevied weather packets stored in our database for station/object N4HAC. If no packets are shown the sender has not sent any weather packets the latest 10 day(s).
| Time | Temp. | Humidity | Pressure | Rain* | Wind** | Luminosity | Snow |
|---|---|---|---|---|---|---|---|
| 1777383455 | 10.56° C | 91% | 1014.6 hPa | 0 mm | - | 197 W/m² | - |
| 1777383151 | 10° C | 91% | 1014.9 hPa | 0 mm | - | 156 W/m² | - |
| 1777382848 | 10° C | 90% | 1014.9 hPa | 0 mm | - | 192 W/m² | - |
| 1777382544 | 10° C | 91% | 1014.7 hPa | 0 mm | - | 207 W/m² | - |
| 1777382240 | 10° C | 91% | 1014.9 hPa | 0 mm | - | 130 W/m² | - |
| 1777381936 | 9.44° C | 91% | 1015.3 hPa | 0 mm | - | 73 W/m² | - |
| 1777381636 | 9.44° C | 91% | 1015.4 hPa | 0 mm | - | 72 W/m² | - |
| 1777381332 | 9.44° C | 91% | 1015.5 hPa | 0 mm | - | 41 W/m² | - |
| 1777381028 | 9.44° C | 91% | 1015.7 hPa | 0 mm | - | 21 W/m² | - |
| 1777380724 | 9.44° C | 91% | 1015.7 hPa | 0 mm | - | 35 W/m² | - |
| 1777380421 | 9.44° C | 91% | 1015.4 hPa | 0 mm | - | 48 W/m² | - |
| 1777380118 | 9.44° C | 90% | 1015.1 hPa | 0 mm | - | 16 W/m² | - |
| 1777379814 | 9.44° C | 90% | 1015 hPa | 0 mm | - | 69 W/m² | - |
| 1777379510 | 9.44° C | 90% | 1014.9 hPa | 0 mm | - | 70 W/m² | - |
| 1777379205 | 9.44° C | 90% | 1014.9 hPa | 0 mm | - | 20 W/m² | - |
| 1777378900 | 9.44° C | 91% | 1014.9 hPa | 0 mm | - | 34 W/m² | - |
| 1777378597 | 8.89° C | 92% | 1015 hPa | 0 mm | - | 33 W/m² | - |
| 1777378292 | 8.89° C | 92% | 1015.1 hPa | 0 mm | - | 31 W/m² | - |
| 1777377991 | 9.44° C | 92% | 1015.2 hPa | 0.51 mm | - | 33 W/m² | - |
| 1777377686 | 9.44° C | 91% | 1015.1 hPa | 1.27 mm | - | 45 W/m² | - |
| 1777377381 | 9.44° C | 89% | 1015.4 hPa | 1.27 mm | - | 57 W/m² | - |
| 1777377077 | 9.44° C | 88% | 1015.3 hPa | 1.78 mm | - | 53 W/m² | - |
| 1777376774 | 9.44° C | 86% | 1015.6 hPa | 1.78 mm | - | 45 W/m² | - |
| 1777376473 | 9.44° C | 85% | 1015.4 hPa | 0.51 mm | - | 35 W/m² | - |
| 1777376168 | 9.44° C | 84% | 1015.7 hPa | 0 mm | - | 25 W/m² | - |
* Rain latest hour (hover to see other rain measurements)
** Current wind speed in m/s (hover to see current wind gust speed)